Location: Autingues
(50.8400°N, 1.9737°E)
Time: 20:09:31
(UTC+00:00)

Cosmos 2026 Rocket - Pass Details

Date: 15 May 2026
Orbit: 939 x 999 km, 82.9° (Epoch: 8 June)

Event Time Altitude Azimuth Distance (km) Brightness Sun altitude
Rises 22:29:01 0° 347° (NNW) 3,731 8.7 -18.0°
Reaches altitude 10° 22:31:35 10° 344° (NNW) 2,780 7.7 -18.1°
Maximum altitude 22:37:51 60° 267° (W) 1,138 4.4 -18.4°
Enters shadow 22:41:40 24° 196° (SSW) 1,923 5.1 -18.6°
